Time,TemperatureF,DewpointF,PressureIn,WindDirection,WindDirectionDegrees,WindSpeedMPH,WindSpeedGustMPH,Humidity,HourlyPrecipIn,Conditions,Clouds,dailyrainin,SoftwareType,DateUTC
2013-10-09 00:06:00,66.0,57.5,29.90,SSE,157,2.2,-999.0,74,-99.99,,,0.00,Acu-Link.com,2013-10-09 05:06:00,
2013-10-09 00:22:00,65.8,57.7,29.90,SE,135,1.1,-999.0,75,-99.99,,,0.00,Acu-Link.com,2013-10-09 05:22:00,
2013-10-09 00:37:00,65.7,57.5,29.90,ESE,112,1.6,-999.0,75,-99.99,,,0.00,Acu-Link.com,2013-10-09 05:37:00,
2013-10-09 00:53:00,65.1,57.7,29.90,SSW,202,2.2,-999.0,77,-99.99,,,0.00,Acu-Link.com,2013-10-09 05:53:00,
2013-10-09 01:08:00,65.1,57.7,29.90,South,180,0.0,-999.0,77,-99.99,,,0.00,Acu-Link.com,2013-10-09 06:08:00,
2013-10-09 01:23:00,64.6,58.3,29.90,ESE,112,1.6,-999.0,80,-99.99,,,0.00,Acu-Link.com,2013-10-09 06:23:00,
2013-10-09 01:40:00,64.4,58.4,29.90,ESE,112,2.2,-999.0,81,-99.99,,,0.00,Acu-Link.com,2013-10-09 06:40:00,
2013-10-09 01:55:00,64.0,58.8,29.90,South,180,1.1,-999.0,83,-99.99,,,0.00,Acu-Link.com,2013-10-09 06:55:00,
2013-10-09 02:10:00,63.1,59.2,29.90,SSW,202,0.0,-999.0,87,-99.99,,,0.00,Acu-Link.com,2013-10-09 07:10:00,
2013-10-09 02:25:00,62.8,59.8,29.90,South,180,0.0,-999.0,90,-99.99,,,0.00,Acu-Link.com,2013-10-09 07:25:00,
2013-10-09 02:40:00,61.5,60.1,29.90,SSW,202,0.0,-999.0,95,-99.99,,,0.00,Acu-Link.com,2013-10-09 07:40:00,
2013-10-09 02:55:00,60.6,60.1,29.90,SE,135,0.0,-999.0,98,-99.99,,,0.00,Acu-Link.com,2013-10-09 07:55:00,
2013-10-09 03:11:00,59.7,59.2,29.90,SE,135,0.0,-999.0,98,-99.99,,,0.00,Acu-Link.com,2013-10-09 08:11:00,
2013-10-09 03:26:00,58.3,57.7,29.90,SE,135,0.0,-999.0,98,-99.99,,,0.00,Acu-Link.com,2013-10-09 08:26:00,
2013-10-09 03:41:00,57.4,56.8,29.90,SE,135,0.0,-999.0,98,-99.99,,,0.00,Acu-Link.com,2013-10-09 08:41:00,
2013-10-09 03:56:00,56.3,55.7,29.90,SE,135,0.0,-999.0,98,-99.99,,,0.00,Acu-Link.com,2013-10-09 08:56:00,
2013-10-09 04:11:00,55.6,55.0,29.90,SE,135,0.0,-999.0,98,-99.99,,,0.00,Acu-Link.com,2013-10-09 09:11:00,
2013-10-09 04:26:00,54.5,53.9,29.90,WSW,247,0.0,-999.0,98,-99.99,,,0.00,Acu-Link.com,2013-10-09 09:26:00,
2013-10-09 04:41:00,53.6,53.0,29.90,WSW,247,0.0,-999.0,98,-99.99,,,0.00,Acu-Link.com,2013-10-09 09:41:00,
2013-10-09 04:57:00,52.7,52.2,29.90,WSW,247,0.0,-999.0,98,-99.99,,,0.00,Acu-Link.com,2013-10-09 09:57:00,
2013-10-09 05:12:00,50.0,49.5,29.91,SSW,202,0.0,-999.0,98,-99.99,,,0.00,Acu-Link.com,2013-10-09 10:12:00,
2013-10-09 05:27:00,49.5,48.9,29.91,SSW,202,0.0,-999.0,98,-99.99,,,0.00,Acu-Link.com,2013-10-09 10:27:00,
2013-10-09 05:42:00,49.1,48.6,29.91,SW,225,0.0,-999.0,98,-99.99,,,0.00,Acu-Link.com,2013-10-09 10:42:00,
2013-10-09 05:57:00,48.6,48.0,29.92,ENE,67,0.0,-999.0,98,-99.99,,,0.00,Acu-Link.com,2013-10-09 10:57:00,
2013-10-09 06:13:00,48.2,47.7,29.92,SW,225,0.0,-999.0,98,-99.99,,,0.00,Acu-Link.com,2013-10-09 11:13:00,
2013-10-09 06:28:00,48.2,47.7,29.93,WSW,247,0.0,-999.0,98,-99.99,,,0.00,Acu-Link.com,2013-10-09 11:28:00,
2013-10-09 06:43:00,47.7,47.1,29.93,ENE,67,0.0,-999.0,98,-99.99,,,0.00,Acu-Link.com,2013-10-09 11:43:00,
2013-10-09 06:58:00,47.7,47.1,29.94,ENE,67,0.0,-999.0,98,-99.99,,,0.00,Acu-Link.com,2013-10-09 11:58:00,
2013-10-09 07:13:00,47.3,46.8,29.94,ENE,67,0.0,-999.0,98,-99.99,,,0.00,Acu-Link.com,2013-10-09 12:13:00,
2013-10-09 07:29:00,46.9,46.4,29.95,ENE,67,0.0,-999.0,98,-99.99,,,0.00,Acu-Link.com,2013-10-09 12:29:00,
2013-10-09 07:44:00,46.9,46.4,29.95,ENE,67,0.0,-999.0,98,-99.99,,,0.00,Acu-Link.com,2013-10-09 12:44:00,
2013-10-09 07:59:00,47.3,46.8,29.95,South,180,0.0,-999.0,98,-99.99,,,0.00,Acu-Link.com,2013-10-09 12:59:00,
2013-10-09 08:14:00,47.8,47.3,29.96,South,180,0.0,-999.0,98,-99.99,,,0.00,Acu-Link.com,2013-10-09 13:14:00,
2013-10-09 08:29:00,48.9,48.4,29.96,South,180,0.0,-999.0,98,-99.99,,,0.00,Acu-Link.com,2013-10-09 13:29:00,
2013-10-09 08:45:00,53.6,53.0,29.97,South,180,0.0,-999.0,98,-99.99,,,0.00,Acu-Link.com,2013-10-09 13:45:00,
2013-10-09 09:00:00,59.0,58.4,29.97,South,180,3.1,-999.0,98,-99.99,,,0.00,Acu-Link.com,2013-10-09 14:00:00,
2013-10-09 09:15:00,61.2,60.6,29.97,SSE,157,4.7,-999.0,98,-99.99,,,0.00,Acu-Link.com,2013-10-09 14:15:00,
2013-10-09 09:30:00,63.3,62.7,29.98,SE,135,4.7,-999.0,98,-99.99,,,0.00,Acu-Link.com,2013-10-09 14:30:00,
2013-10-09 09:45:00,65.5,64.9,29.98,SSW,202,7.4,-999.0,98,-99.99,,,0.00,Acu-Link.com,2013-10-09 14:45:00,
2013-10-09 10:01:00,67.1,66.5,29.98,South,180,9.4,-999.0,98,-99.99,,,0.00,Acu-Link.com,2013-10-09 15:01:00,
2013-10-09 10:16:00,69.4,68.8,29.99,South,180,7.8,-999.0,98,-99.99,,,0.00,Acu-Link.com,2013-10-09 15:16:00,
2013-10-09 10:31:00,70.5,69.9,29.99,SSW,202,6.7,-999.0,98,-99.99,,,0.00,Acu-Link.com,2013-10-09 15:31:00,
2013-10-09 10:46:00,71.2,68.8,29.99,South,180,8.3,-999.0,92,-99.99,,,0.00,Acu-Link.com,2013-10-09 15:46:00,
2013-10-09 11:02:00,72.9,67.7,29.99,SW,225,6.3,-999.0,84,-99.99,,,0.00,Acu-Link.com,2013-10-09 16:02:00,
2013-10-09 11:17:00,74.1,65.7,29.99,SSE,157,6.3,-999.0,75,-99.99,,,0.00,Acu-Link.com,2013-10-09 16:17:00,
2013-10-09 11:32:00,76.1,66.0,29.99,South,180,7.8,-999.0,71,-99.99,,,0.00,Acu-Link.com,2013-10-09 16:32:00,
2013-10-09 11:47:00,77.0,65.6,29.98,SSE,157,8.9,-999.0,68,-99.99,,,0.00,Acu-Link.com,2013-10-09 16:47:00,
2013-10-09 12:02:00,80.4,64.8,29.97,SSW,202,4.7,-999.0,59,-99.99,,,0.00,Acu-Link.com,2013-10-09 17:02:00,
2013-10-09 12:18:00,80.6,64.9,29.97,SSW,202,6.3,-999.0,59,-99.99,,,0.00,Acu-Link.com,2013-10-09 17:18:00,
2013-10-09 12:33:00,81.0,63.8,29.97,South,180,9.4,-999.0,56,-99.99,,,0.00,Acu-Link.com,2013-10-09 17:33:00,
2013-10-09 12:48:00,81.7,64.4,29.96,SW,225,5.1,-999.0,56,-99.99,,,0.00,Acu-Link.com,2013-10-09 17:48:00,
2013-10-09 13:03:00,83.5,65.1,29.94,ESE,112,4.7,-999.0,54,-99.99,,,0.00,Acu-Link.com,2013-10-09 18:03:00,
2013-10-09 13:18:00,82.6,64.2,29.94,South,180,5.1,-999.0,54,-99.99,,,0.00,Acu-Link.com,2013-10-09 18:18:00,
2013-10-09 13:34:00,84.0,64.5,29.93,SSW,202,2.7,-999.0,52,-99.99,,,0.00,Acu-Link.com,2013-10-09 18:34:00,
2013-10-09 13:49:00,84.6,63.8,29.93,South,180,2.7,-999.0,50,-99.99,,,0.00,Acu-Link.com,2013-10-09 18:49:00,
2013-10-09 14:04:00,84.4,64.2,29.91,SW,225,4.7,-999.0,51,-99.99,,,0.00,Acu-Link.com,2013-10-09 19:04:00,
2013-10-09 14:19:00,84.4,63.7,29.90,South,180,2.7,-999.0,50,-99.99,,,0.00,Acu-Link.com,2013-10-09 19:19:00,
2013-10-09 14:34:00,85.8,65.0,29.90,SSW,202,4.7,-999.0,50,-99.99,,,0.00,Acu-Link.com,2013-10-09 19:34:00,
2013-10-09 14:50:00,87.1,65.0,29.90,SSE,157,4.3,-999.0,48,-99.99,,,0.00,Acu-Link.com,2013-10-09 19:50:00,
2013-10-09 15:05:00,86.7,65.2,29.89,SSW,202,3.1,-999.0,49,-99.99,,,0.00,Acu-Link.com,2013-10-09 20:05:00,
2013-10-09 15:20:00,86.7,63.4,29.88,South,180,7.4,-999.0,46,-99.99,,,0.00,Acu-Link.com,2013-10-09 20:20:00,
2013-10-09 15:35:00,86.9,65.4,29.88,SSE,157,3.1,-999.0,49,-99.99,,,0.00,Acu-Link.com,2013-10-09 20:35:00,
2013-10-09 15:51:00,88.2,66.6,29.88,SSE,157,1.1,-999.0,49,-99.99,,,0.00,Acu-Link.com,2013-10-09 20:51:00,
2013-10-09 16:06:00,86.7,66.4,29.87,SE,135,4.7,-999.0,51,-99.99,,,0.00,Acu-Link.com,2013-10-09 21:06:00,
2013-10-09 16:21:00,85.8,65.6,29.87,ESE,112,5.1,-999.0,51,-99.99,,,0.00,Acu-Link.com,2013-10-09 21:21:00,
2013-10-09 16:36:00,86.2,65.3,29.87,SSW,202,4.7,-999.0,50,-99.99,,,0.00,Acu-Link.com,2013-10-09 21:36:00,
2013-10-09 16:51:00,86.2,65.3,29.86,South,180,4.7,-999.0,50,-99.99,,,0.00,Acu-Link.com,2013-10-09 21:51:00,
2013-10-09 17:07:00,86.7,65.8,29.86,NNE,22,4.7,-999.0,50,-99.99,,,0.00,Acu-Link.com,2013-10-09 22:07:00,
2013-10-09 17:22:00,85.3,64.5,29.85,South,180,9.4,-999.0,50,-99.99,,,0.00,Acu-Link.com,2013-10-09 22:22:00,
2013-10-09 17:37:00,84.0,63.3,29.86,SE,135,5.1,-999.0,50,-99.99,,,0.00,Acu-Link.com,2013-10-09 22:37:00,
2013-10-09 17:52:00,83.8,63.2,29.86,WSW,247,3.8,-999.0,50,-99.99,,,0.00,Acu-Link.com,2013-10-09 22:52:00,
2013-10-09 18:07:00,83.1,62.5,29.86,South,180,3.8,-999.0,50,-99.99,,,0.00,Acu-Link.com,2013-10-09 23:07:00,
2013-10-09 18:23:00,82.0,62.1,29.86,SSE,157,4.3,-999.0,51,-99.99,,,0.00,Acu-Link.com,2013-10-09 23:23:00,
2013-10-09 18:41:00,81.7,62.3,29.86,South,180,6.3,-999.0,52,-99.99,,,0.00,Acu-Link.com,2013-10-09 23:41:00,
2013-10-09 18:56:00,79.7,62.1,29.87,SSE,157,4.7,-999.0,55,-99.99,,,0.00,Acu-Link.com,2013-10-09 23:56:00,
2013-10-09 19:11:00,77.9,61.9,29.87,SSE,157,0.0,-999.0,58,-99.99,,,0.00,Acu-Link.com,2013-10-10 00:11:00,
2013-10-09 19:26:00,76.1,63.0,29.87,South,180,0.0,-999.0,64,-99.99,,,0.00,Acu-Link.com,2013-10-10 00:26:00,
2013-10-09 19:42:00,75.2,63.9,29.87,SSE,157,0.0,-999.0,68,-99.99,,,0.00,Acu-Link.com,2013-10-10 00:42:00,
2013-10-09 19:57:00,73.9,63.9,29.88,SE,135,0.0,-999.0,71,-99.99,,,0.00,Acu-Link.com,2013-10-10 00:57:00,
2013-10-09 20:12:00,72.5,64.5,29.88,SSW,202,0.0,-999.0,76,-99.99,,,0.00,Acu-Link.com,2013-10-10 01:12:00,
2013-10-09 20:27:00,71.6,65.1,29.89,SSE,157,0.0,-999.0,80,-99.99,,,0.00,Acu-Link.com,2013-10-10 01:27:00,
2013-10-09 20:42:00,70.7,66.3,29.89,SSW,202,0.0,-999.0,86,-99.99,,,0.00,Acu-Link.com,2013-10-10 01:42:00,
2013-10-09 20:58:00,70.2,67.4,29.90,SSE,157,0.0,-999.0,91,-99.99,,,0.00,Acu-Link.com,2013-10-10 01:58:00,
2013-10-09 21:13:00,69.8,68.6,29.90,SSE,157,0.0,-999.0,96,-99.99,,,0.00,Acu-Link.com,2013-10-10 02:13:00,
2013-10-09 21:28:00,69.4,68.8,29.90,SSE,157,0.0,-999.0,98,-99.99,,,0.00,Acu-Link.com,2013-10-10 02:28:00,
2013-10-09 21:43:00,69.4,68.8,29.90,SSE,157,2.2,-999.0,98,-99.99,,,0.00,Acu-Link.com,2013-10-10 02:43:00,
2013-10-09 21:58:00,69.6,69.0,29.91,SSE,157,2.7,-999.0,98,-99.99,,,0.00,Acu-Link.com,2013-10-10 02:58:00,
2013-10-09 22:14:00,69.6,69.0,29.91,South,180,3.1,-999.0,98,-99.99,,,0.00,Acu-Link.com,2013-10-10 03:14:00,
2013-10-09 22:29:00,69.6,69.0,29.92,South,180,1.6,-999.0,98,-99.99,,,0.00,Acu-Link.com,2013-10-10 03:29:00,
2013-10-09 22:44:00,69.6,69.0,29.92,SSE,157,2.7,-999.0,98,-99.99,,,0.00,Acu-Link.com,2013-10-10 03:44:00,
2013-10-09 22:59:00,69.6,69.0,29.92,SSW,202,2.7,-999.0,98,-99.99,,,0.00,Acu-Link.com,2013-10-10 03:59:00,
2013-10-09 23:15:00,69.4,68.8,29.92,SSW,202,2.7,-999.0,98,-99.99,,,0.00,Acu-Link.com,2013-10-10 04:15:00,
2013-10-09 23:30:00,69.3,68.7,29.92,South,180,2.7,-999.0,98,-99.99,,,0.00,Acu-Link.com,2013-10-10 04:30:00,
2013-10-09 23:45:00,69.3,68.7,29.92,SSW,202,1.6,-999.0,98,-99.99,,,0.00,Acu-Link.com,2013-10-10 04:45:00,